Regional Weather Roundup
Issued by NWS

Home | Current Version | Previous Version | Graphics & Text | Print | Product List | Glossary On
Versions: 1 2 3 4 5 6 7 8 9 10 11 12 13 14 15 16 17 18 19 20 21 22 23 24 25 26 27 28 29 30 31 32 33 34 35 36 37 38 39 40 41 42 43 44 45 46 47 48 49 50
000
ASUS43 KLMK 071602
RWRKY
KENTUCKY REGIONAL WEATHER ROUNDUP
NATIONAL WEATHER SERVICE LOUISVILLE KY
1100 AM EST SUN FEB 07 2016

NOTE "FAIR" INDICATES FEW OR NO CLOUDS BELOW 12,000 FEET
WITH NO SIGNIFICANT WEATHER AND/OR OBSTRUCTIONS TO VISIBILITY.

KYZ001>023-026-027-061>063-070>075-071700-
WESTERN AND SOUTH CENTRAL KENTUCKY

CITY           SKY/WX    TMP DP  RH WIND       PRES   REMARKS
PADUCAH        SUNNY     48  25  40 SW13      30.12F
HENDERSON      SUNNY     46  27  46 SW13G23   30.10F
OWENSBORO      SUNNY     48  29  48 SW16      30.12F
HOPKINSVILLE   SUNNY     48  25  40 SW13      30.15F
BOWLING GREEN  CLOUDY    47  28  47 SW7       30.17F
GLASGOW        NOT AVBL
$$

KYZ024-025-028>034-038-045-046-053-071700-
NORTH CENTRAL KENTUCKY

CITY           SKY/WX    TMP DP  RH WIND       PRES   REMARKS
LOUISVILLE/SDF CLOUDY    47  21  35 SW14G22   30.10F
LOUISVILLE/LOU PTSUNNY   45  24  43 S7        30.11F
FORT KNOX      CLOUDY    44  25  47 S8        30.10F
$$

KYZ035>037-039>044-047>052-055>060-089>105-071700-
NORTHEAST KENTUCKY

CITY           SKY/WX    TMP DP  RH WIND       PRES   REMARKS
LEXINGTON      SUNNY     46  25  43 SW13      30.12F
COVINGTON      PTSUNNY   42  23  46 S10       30.07F
FRANKFORT      SUNNY     47  21  35 SW14      30.10F
$$

KYZ054-064>069-076>088-106>120-071700-
SOUTHEAST KENTUCKY

CITY           SKY/WX    TMP DP  RH WIND       PRES   REMARKS
JACKSON        SUNNY     42  26  53 CALM      30.15S
LONDON         SUNNY     41  25  53 SW5       30.17S
SOMERSET       NOT AVBL
MIDDLESBORO    NOT AVBL
MONTICELLO     SUNNY     46  25  43 W14       30.19F
$$




USA.gov is the U.S. government's official web portal to all federal, state and local government web resources and services.